星链-3446 (STARLINK-3446 )

导读

STARLINK-3446是美国太空探索技术公司(SpaceX)星链(Starlink)互联网卫星星座中的一员,于2022年2月21日发射入轨,属于星链项目低轨卫星组网批量发射的卫星之一,旨在为全球提供高速低延迟卫星互联网服务,运行在近地轨道,服务全球偏远及网络覆盖不足区域。

基本信息
目录编号:
51747
目录名称:
STARLINK-3446
国际标识:
2022-016AK
轨道中心:
EARTH
卫星名称:
星链-3446
卫星全名:
星链-3446 (STARLINK-3446 )
卫星状态:
在轨 (已飞行1656 天)
发射日期:
2022-02-21 UTC
国别 :
美国 (US)
星等 :
--
轨道信息
数据来源 国际轨道数据 AOE轨道数据
星历时间 2026-09-03T16:39:06+0800
1天前
查看轨道信息
2026-09-03T23:00:00+0800
22小时前
查看轨道信息
半长轴 6848.876km 6848.871km
偏心率 0.0001238 0.0001362
轨道倾角 53.159° 53.157°
近地点辐角 78.655° 81.968°
升交点赤经 230.621° 229.389°
平近点角 281.459° 297.529°
近地点 469.891km 469.801km
远地点 471.587km 471.667km
周期 94.013分钟 94.013分钟
每日圈数 15.317006 15.317021
详细信息
固有亮度:
5
最大亮度:
2.5
卫星平台:
Starlink v1.5
覆盖范围:
全球
运营商:
太空探索技术公司
运营商所在国:
美国
制造商(研发单位):
太空探索技术公司
制造商所在国:
美国
使用方式:
暂无
卫星简介
星链(Starlink)计划是由太空探索技术公司(SpaceX)提出的一个巨型低轨卫星互联网星座项目,计划在2019年至2024年间在太空搭建由约1.2万颗卫星组成的“星链”网络,其中1584颗将部署在地球上空550千米处的近地轨道,并从2020年开始工作。该卫星仍在工作。
2D轨道图
3D轨道图
轨道高度分析图
轨道倾角分析图
轨道综合分析图
查看轨道综合分析图
交会数据列表
事件ID 空间交会对象 最接近时刻(TCA) 交会距离 交会风险概率(CRP) 交会风险指数(CRI) 操作
CDM_260906-205505-174706-338021
2026-09-06T
20:55:59+0000
0.539 km
远距离
1.134187E-4 高风险 0.76
CDM_260905-132605-174706-309421
2026-09-05T
13:26:23+0000
1.851 km
极远距离
1.78403E-6 低风险 0.4
CDM_260904-180505-174706-831021
2026-09-04T
18:05:53+0000
2.813 km
极远距离
1.427956E-6 低风险 0.38
CDM_260906-192205-174706-338021
2026-09-06T
19:22:01+0000
2.742 km
极远距离
1.021288E-6 低风险 0.35